When you browse on this site, cookies collect data to enhance your experience and personalize the content and advertising you see.
Visit our Privacy Policy to learn more. By continuing to use the site, you agree to this use of cookies and data.
  • In Hungary
  • List of Countries
  • For 7 days
  • Water Temperature
  • Satellite Maps
  • Weather Map
  • News
  • Weather Widgets
  • user-avatar
    Login

    Hourly Weather Podrzeczany

    Today, 20 May, Monday

    Time Temperature Precipitation Wind Pressure Humidity
    00:00 +17°C° 0 mm 4 mps 744 mmHg 93%
    01:00 +17°C° 0 mm 4 mps 744 mmHg 94%
    02:00 +17°C° 0 mm 4 mps 744 mmHg 93%
    03:00 +15°C° 0.2 mm 4 mps 744 mmHg 93%
    04:00 +15°C° 0.2 mm 5 mps 743 mmHg 94%
    05:00 +15°C° 0.2 mm 5 mps 743 mmHg 94%
    06:00 +16°C° 0 mm 5 mps 743 mmHg 92%
    07:00 +17°C° 0 mm 6 mps 743 mmHg 89%
    08:00 +20°C° 0 mm 7 mps 743 mmHg 86%
    09:00 +21°C° 0 mm 7 mps 743 mmHg 83%
    10:00 +22°C° 0 mm 7 mps 743 mmHg 80%
    11:00 +22°C° 0 mm 7 mps 743 mmHg 76%
    12:00 +23°C° 0.3 mm 7 mps 743 mmHg 73%
    13:00 +24°C° 0.3 mm 7 mps 743 mmHg 70%
    14:00 +26°C° 0 mm 7 mps 743 mmHg 67%
    15:00 +26°C° 1.4 mm 7 mps 743 mmHg 70%
    16:00 +24°C° 1.4 mm 7 mps 743 mmHg 73%
    17:00 +23°C° 1.4 mm 7 mps 742 mmHg 77%
    18:00 +22°C° 0.9 mm 6 mps 742 mmHg 81%
    19:00 +21°C° 0.9 mm 5 mps 743 mmHg 85%
    20:00 +20°C° 0.9 mm 4 mps 743 mmHg 89%
    21:00 +20°C° 1.3 mm 4 mps 743 mmHg 90%
    22:00 +19°C° 1.3 mm 4 mps 743 mmHg 91%
    23:00 +19°C° 1.3 mm 4 mps 743 mmHg 92%

    Tomorrow, 21 May, Tuesday

    Time Temperature Precipitation Wind Pressure Humidity
    00:00 +18°C° 0 mm 4 mps 743 mmHg 92%
    01:00 +18°C° 0 mm 4 mps 742 mmHg 91%
    02:00 +17°C° 0 mm 4 mps 742 mmHg 91%
    03:00 +17°C° 0 mm 4 mps 742 mmHg 92%
    04:00 +17°C° 0 mm 4 mps 742 mmHg 94%
    05:00 +15°C° 0 mm 4 mps 742 mmHg 95%
    06:00 +17°C° 0 mm 4 mps 742 mmHg 92%
    07:00 +19°C° 0 mm 5 mps 742 mmHg 89%
    08:00 +20°C° 0 mm 6 mps 742 mmHg 86%
    09:00 +20°C° 0 mm 6 mps 742 mmHg 83%
    10:00 +21°C° 0 mm 6 mps 742 mmHg 80%
    11:00 +21°C° 0 mm 6 mps 742 mmHg 77%
    12:00 +21°C° 0.2 mm 6 mps 742 mmHg 78%
    13:00 +21°C° 0.2 mm 6 mps 741 mmHg 79%
    14:00 +21°C° 0.2 mm 6 mps 741 mmHg 80%
    15:00 +21°C° 0.2 mm 7 mps 741 mmHg 78%
    16:00 +21°C° 0.2 mm 7 mps 741 mmHg 76%
    17:00 +21°C° 0.2 mm 7 mps 741 mmHg 74%
    18:00 +20°C° 0 mm 6 mps 740 mmHg 77%
    19:00 +19°C° 0 mm 5 mps 740 mmHg 80%
    20:00 +17°C° 0 mm 4 mps 740 mmHg 83%
    21:00 +15°C° 0 mm 4 mps 741 mmHg 84%
    22:00 +14°C° 0 mm 3 mps 741 mmHg 85%
    23:00 +12°C° 0 mm 3 mps 741 mmHg 85%

    Day after tomorrow, 22 May, Wednesday

    Time Temperature Precipitation Wind Pressure Humidity
    00:00 +12°C° 0 mm 3 mps 741 mmHg 86%
    01:00 +12°C° 0 mm 3 mps 741 mmHg 87%
    02:00 +11°C° 0 mm 3 mps 741 mmHg 88%
    03:00 +11°C° 0 mm 3 mps 741 mmHg 89%
    04:00 +11°C° 0 mm 3 mps 741 mmHg 90%
    05:00 +11°C° 0 mm 3 mps 741 mmHg 91%
    06:00 +12°C° 0 mm 4 mps 741 mmHg 86%
    07:00 +14°C° 0 mm 4 mps 741 mmHg 80%
    08:00 +15°C° 0 mm 5 mps 741 mmHg 74%
    09:00 +16°C° 0 mm 5 mps 741 mmHg 73%
    10:00 +17°C° 0 mm 5 mps 741 mmHg 71%
    11:00 +19°C° 0 mm 5 mps 741 mmHg 70%
    12:00 +19°C° 0 mm 5 mps 741 mmHg 70%
    13:00 +20°C° 0 mm 4 mps 741 mmHg 70%
    14:00 +20°C° 0 mm 4 mps 741 mmHg 70%
    15:00 +20°C° 0.4 mm 3 mps 741 mmHg 72%
    16:00 +20°C° 0.4 mm 3 mps 741 mmHg 73%
    17:00 +20°C° 0.4 mm 3 mps 741 mmHg 75%
    18:00 +19°C° 0.2 mm 2 mps 741 mmHg 79%
    19:00 +18°C° 0.2 mm 2 mps 741 mmHg 82%
    20:00 +18°C° 0.2 mm 1 mps 741 mmHg 86%
    21:00 +16°C° 0 mm 1 mps 741 mmHg 88%
    22:00 +15°C° 0 mm 1 mps 742 mmHg 91%
    23:00 +14°C° 0 mm 1 mps 742 mmHg 93%

    23 May, Thursday

    Time Temperature Precipitation Wind Pressure Humidity
    00:00 +13°C° 0 mm 0 mps 742 mmHg 93%
    01:00 +12°C° 0 mm 0 mps 742 mmHg 94%
    02:00 +12°C° 0 mm 0 mps 742 mmHg 94%
    03:00 +12°C° 0 mm 0 mps 742 mmHg 94%
    04:00 +12°C° 0 mm 0 mps 742 mmHg 95%
    05:00 +13°C° 0 mm 1 mps 742 mmHg 95%
    06:00 +14°C° 0 mm 0 mps 743 mmHg 90%
    07:00 +15°C° 0 mm 0 mps 743 mmHg 85%
    08:00 +17°C° 0 mm 0 mps 743 mmHg 80%
    09:00 +18°C° 0.2 mm 0 mps 743 mmHg 75%
    10:00 +22°C° 0.2 mm 1 mps 743 mmHg 70%
    11:00 +23°C° 0.2 mm 1 mps 743 mmHg 65%
    12:00 +23°C° 1.6 mm 2 mps 743 mmHg 68%
    13:00 +22°C° 1.6 mm 3 mps 743 mmHg 71%
    14:00 +21°C° 1.6 mm 4 mps 743 mmHg 74%
    15:00 +21°C° 1.2 mm 5 mps 743 mmHg 78%
    16:00 +20°C° 1.2 mm 5 mps 743 mmHg 82%
    17:00 +19°C° 1.2 mm 6 mps 743 mmHg 86%
    18:00 +16°C° 0.2 mm 6 mps 744 mmHg 88%
    19:00 +15°C° 0.2 mm 6 mps 744 mmHg 90%
    20:00 +14°C° 0.2 mm 6 mps 744 mmHg 91%
    21:00 +13°C° 0.2 mm 5 mps 744 mmHg 91%
    22:00 +12°C° 0.2 mm 5 mps 744 mmHg 90%
    23:00 +10°C° 0.2 mm 5 mps 745 mmHg 90%

    24 May, Friday

    Time Temperature Precipitation Wind Pressure Humidity
    00:00 +10°C° 0 mm 5 mps 745 mmHg 87%
    01:00 +9°C° 0 mm 5 mps 745 mmHg 84%
    02:00 +9°C° 0 mm 5 mps 745 mmHg 81%
    03:00 +10°C° 0 mm 4 mps 745 mmHg 81%
    04:00 +8°C° 0 mm 4 mps 745 mmHg 81%
    05:00 +8°C° 0 mm 4 mps 745 mmHg 81%
    06:00 +10°C° 0.1 mm 4 mps 745 mmHg 81%
    07:00 +11°C° 0.1 mm 4 mps 745 mmHg 80%
    08:00 +11°C° 0.1 mm 4 mps 745 mmHg 80%
    09:00 +13°C° 0 mm 4 mps 745 mmHg 75%
    10:00 +15°C° 0 mm 4 mps 745 mmHg 71%
    11:00 +17°C° 0 mm 4 mps 745 mmHg 66%
    12:00 +17°C° 0 mm 4 mps 745 mmHg 65%
    13:00 +18°C° 0 mm 4 mps 744 mmHg 63%
    14:00 +18°C° 0 mm 4 mps 744 mmHg 62%
    15:00 +19°C° 0 mm 4 mps 744 mmHg 61%
    16:00 +19°C° 0 mm 4 mps 744 mmHg 61%
    17:00 +19°C° 0 mm 4 mps 743 mmHg 60%
    18:00 +18°C° 0 mm 3 mps 743 mmHg 67%
    19:00 +17°C° 0 mm 3 mps 743 mmHg 73%
    20:00 +14°C° 0 mm 3 mps 743 mmHg 80%
    21:00 +14°C° 0 mm 2 mps 743 mmHg 83%
    22:00 +13°C° 0 mm 2 mps 743 mmHg 86%
    23:00 +12°C° 0 mm 2 mps 744 mmHg 89%

    25 May, Saturday

    Time Temperature Precipitation Wind Pressure Humidity
    00:00 +10°C° 0 mm 2 mps 743 mmHg 90%
    01:00 +9°C° 0 mm 2 mps 743 mmHg 91%
    02:00 +9°C° 0 mm 2 mps 743 mmHg 92%
    03:00 +9°C° 0 mm 2 mps 743 mmHg 92%
    04:00 +9°C° 0 mm 1 mps 744 mmHg 91%
    05:00 +9°C° 0 mm 1 mps 744 mmHg 90%
    06:00 +11°C° 0 mm 1 mps 744 mmHg 83%
    07:00 +13°C° 0 mm 1 mps 744 mmHg 75%
    08:00 +15°C° 0 mm 1 mps 744 mmHg 68%
    09:00 +18°C° 0 mm 1 mps 743 mmHg 65%
    10:00 +18°C° 0 mm 2 mps 743 mmHg 63%
    11:00 +19°C° 0 mm 2 mps 743 mmHg 61%
    12:00 +20°C° 0.4 mm 3 mps 743 mmHg 63%
    13:00 +20°C° 0.4 mm 3 mps 743 mmHg 64%
    14:00 +20°C° 0.4 mm 4 mps 743 mmHg 66%
    15:00 +20°C° 0.5 mm 4 mps 742 mmHg 68%
    16:00 +20°C° 0.5 mm 4 mps 742 mmHg 70%
    17:00 +20°C° 0.5 mm 4 mps 742 mmHg 72%
    18:00 +18°C° 0.6 mm 3 mps 742 mmHg 77%
    19:00 +17°C° 0.6 mm 3 mps 742 mmHg 82%
    20:00 +16°C° 0.6 mm 2 mps 742 mmHg 87%
    21:00 +15°C° 0 mm 2 mps 742 mmHg 90%
    22:00 +14°C° 0 mm 2 mps 742 mmHg 93%
    23:00 +13°C° 0 mm 2 mps 743 mmHg 96%
    Show more